Wetterdaten: Donnerstag, 28.05.2015
Datum Zeit Temp. A. Feuchte A. Luftdruck Regen Wind Richtung Richtung Sonnenschein ET UV Solar Taupunkt Windchill Windben Empfang
28.05.2015 00:00 9,1 C 74 % 1021,3 hPa 0,0 l/m 0,0 km/h (0 Bft) S 180 0 min 0,000 mm 0,0 UV-I 0 W/m 4,7 C 9,1 C 0,0 km/h (0 Bft) 0,00 %
28.05.2015 00:15 8,9 C 76 % 1021,1 hPa 0,0 l/m 0,0 km/h (0 Bft) S 174 0 min 0,000 mm 0,0 UV-I 0 W/m 4,9 C 8,9 C 0,0 km/h (0 Bft) 0,00 %
28.05.2015 00:30 8,8 C 77 % 1021,1 hPa 0,0 l/m 0,0 km/h (0 Bft) S 179 0 min 0,000 mm 0,0 UV-I 0 W/m 5,0 C 8,8 C 0,0 km/h (0 Bft) 0,00 %
28.05.2015 00:45 8,8 C 76 % 1021,1 hPa 0,0 l/m 0,0 km/h (0 Bft) S 172 0 min 0,000 mm 0,0 UV-I 0 W/m 4,8 C 8,8 C 0,0 km/h (0 Bft) 0,00 %
28.05.2015 01:00 8,8 C 76 % 1021,3 hPa 0,0 l/m 0,0 km/h (0 Bft) S 177 0 min 0,000 mm 0,0 UV-I 0 W/m 4,8 C 8,8 C 0,0 km/h (0 Bft) 0,00 %
28.05.2015 01:15 8,8 C 77 % 1021,2 hPa 0,0 l/m 0,0 km/h (0 Bft) S 189 0 min 0,000 mm 0,0 UV-I 0 W/m 5,0 C 8,8 C 0,0 km/h (0 Bft) 0,00 %
28.05.2015 01:30 8,7 C 77 % 1021,0 hPa 0,0 l/m 0,0 km/h (0 Bft) S-SW 200 0 min 0,000 mm 0,0 UV-I 0 W/m 4,9 C 8,7 C 0,0 km/h (0 Bft) 0,00 %
28.05.2015 01:45 8,6 C 78 % 1021,1 hPa 0,0 l/m 0,0 km/h (0 Bft) S 176 0 min 0,000 mm 0,0 UV-I 0 W/m 5,0 C 8,6 C 0,0 km/h (0 Bft) 0,00 %
28.05.2015 02:00 8,6 C 79 % 1021,0 hPa 0,0 l/m 0,0 km/h (0 Bft) S 179 0 min 0,000 mm 0,0 UV-I 0 W/m 5,2 C 8,6 C 0,0 km/h (0 Bft) 0,00 %
28.05.2015 02:15 8,5 C 78 % 1020,9 hPa 0,0 l/m 0,0 km/h (0 Bft) S 189 0 min 0,000 mm 0,0 UV-I 0 W/m 4,9 C 8,5 C 0,0 km/h (0 Bft) 0,00 %
28.05.2015 02:30 8,5 C 79 % 1020,8 hPa 0,0 l/m 0,0 km/h (0 Bft) S 183 0 min 0,000 mm 0,0 UV-I 0 W/m 5,1 C 8,5 C 0,0 km/h (0 Bft) 0,00 %
28.05.2015 02:45 8,4 C 79 % 1020,6 hPa 0,0 l/m 0,0 km/h (0 Bft) S-SW 197 0 min 0,000 mm 0,0 UV-I 0 W/m 5,0 C 8,4 C 0,0 km/h (0 Bft) 0,00 %
28.05.2015 03:00 8,6 C 77 % 1020,6 hPa 0,0 l/m 0,0 km/h (0 Bft) SW 218 0 min 0,000 mm 0,0 UV-I 0 W/m 4,8 C 8,6 C 0,0 km/h (0 Bft) 0,00 %
28.05.2015 03:15 8,5 C 80 % 1020,3 hPa 0,0 l/m 0,0 km/h (0 Bft) S 179 0 min 0,000 mm 0,0 UV-I 0 W/m 5,3 C 8,5 C 0,0 km/h (0 Bft) 0,00 %
28.05.2015 03:30 8,3 C 82 % 1020,5 hPa 0,0 l/m 0,0 km/h (0 Bft) S 178 0 min 0,000 mm 0,0 UV-I 0 W/m 5,4 C 8,3 C 0,0 km/h (0 Bft) 0,00 %
28.05.2015 03:45 8,1 C 83 % 1020,3 hPa 0,0 l/m 0,0 km/h (0 Bft) S 181 0 min 0,000 mm 0,0 UV-I 0 W/m 5,4 C 8,1 C 0,0 km/h (0 Bft) 0,00 %
28.05.2015 04:00 8,0 C 84 % 1020,3 hPa 0,0 l/m 0,0 km/h (0 Bft) S 188 0 min 0,000 mm 0,0 UV-I 0 W/m 5,5 C 8,0 C 0,0 km/h (0 Bft) 0,00 %
28.05.2015 04:15 7,9 C 85 % 1020,1 hPa 0,0 l/m 0,0 km/h (0 Bft) S 188 0 min 0,000 mm 0,0 UV-I 0 W/m 5,5 C 7,9 C 0,0 km/h (0 Bft) 0,00 %
28.05.2015 04:30 7,8 C 85 % 1020,1 hPa 0,0 l/m 0,0 km/h (0 Bft) S 188 0 min 0,000 mm 0,0 UV-I 0 W/m 5,4 C 7,8 C 0,0 km/h (0 Bft) 0,00 %
28.05.2015 04:45 7,7 C 86 % 1020,1 hPa 0,0 l/m 0,0 km/h (0 Bft) S 188 0 min 0,000 mm 0,0 UV-I 0 W/m 5,5 C 7,7 C 0,0 km/h (0 Bft) 0,00 %
28.05.2015 05:00 7,5 C 87 % 1020,1 hPa 0,0 l/m 0,0 km/h (0 Bft) S 188 0 min 0,000 mm 0,0 UV-I 0 W/m 5,5 C 7,5 C 0,0 km/h (0 Bft) 0,00 %
28.05.2015 05:15 7,3 C 88 % 1020,1 hPa 0,0 l/m 0,0 km/h (0 Bft) S 188 0 min 0,000 mm 0,0 UV-I 0 W/m 5,4 C 7,3 C 0,0 km/h (0 Bft) 0,00 %
28.05.2015 05:30 7,2 C 89 % 1020,4 hPa 0,0 l/m 0,0 km/h (0 Bft) S 189 0 min 0,000 mm 0,0 UV-I 2 W/m 5,5 C 7,2 C 0,0 km/h (0 Bft) 0,00 %
28.05.2015 05:45 7,4 C 88 % 1020,3 hPa 0,0 l/m 0,0 km/h (0 Bft) S 189 0 min 0,000 mm 0,0 UV-I 10 W/m 5,5 C 7,4 C 0,0 km/h (0 Bft) 0,00 %
28.05.2015 06:00 7,7 C 88 % 1020,4 hPa 0,0 l/m 0,0 km/h (0 Bft) S 189 0 min 0,000 mm 0,0 UV-I 22 W/m 5,8 C 7,7 C 0,0 km/h (0 Bft) 0,00 %
28.05.2015 06:15 8,0 C 87 % 1020,4 hPa 0,0 l/m 0,0 km/h (0 Bft) S 189 0 min 0,000 mm 0,0 UV-I 38 W/m 6,0 C 8,0 C 0,0 km/h (0 Bft) 0,00 %
28.05.2015 06:30 8,4 C 83 % 1020,4 hPa 0,0 l/m 0,0 km/h (0 Bft) W-SW 251 0 min 0,000 mm 1,0 UV-I 57 W/m 5,7 C 8,4 C 0,0 km/h (0 Bft) 0,00 %
28.05.2015 06:45 8,9 C 82 % 1020,3 hPa 0,0 l/m 0,0 km/h (0 Bft) S-SW 213 0 min 0,000 mm 1,0 UV-I 77 W/m 6,0 C 8,9 C 0,0 km/h (0 Bft) 0,00 %
28.05.2015 07:00 9,1 C 81 % 1020,4 hPa 0,0 l/m 0,0 km/h (0 Bft) S 185 0 min 0,000 mm 1,0 UV-I 99 W/m 6,0 C 9,1 C 0,0 km/h (0 Bft) 0,00 %
28.05.2015 07:15 9,7 C 79 % 1020,3 hPa 0,0 l/m 0,0 km/h (0 Bft) S 189 0 min 0,000 mm 1,0 UV-I 108 W/m 6,2 C 9,7 C 0,0 km/h (0 Bft) 0,00 %
28.05.2015 07:30 10,0 C 77 % 1020,3 hPa 0,0 l/m 0,0 km/h (0 Bft) S-SW 204 0 min 0,000 mm 1,0 UV-I 134 W/m 6,2 C 10,0 C 0,0 km/h (0 Bft) 0,00 %
28.05.2015 07:45 10,4 C 75 % 1020,3 hPa 0,0 l/m 0,0 km/h (0 Bft) S 185 0 min 0,000 mm 1,0 UV-I 128 W/m 6,2 C 10,4 C 0,0 km/h (0 Bft) 0,00 %
28.05.2015 08:00 10,6 C 73 % 1020,2 hPa 0,0 l/m 0,0 km/h (0 Bft) S 174 0 min 0,000 mm 1,0 UV-I 162 W/m 6,0 C 10,6 C 0,0 km/h (0 Bft) 0,00 %
28.05.2015 08:15 10,6 C 71 % 1020,2 hPa 0,0 l/m 0,0 km/h (0 Bft) SO 140 0 min 0,000 mm 1,0 UV-I 174 W/m 5,6 C 10,6 C 0,0 km/h (0 Bft) 0,00 %
28.05.2015 08:30 11,5 C 66 % 1020,1 hPa 0,0 l/m 0,0 km/h (0 Bft) S 184 0 min 0,000 mm 2,0 UV-I 229 W/m 5,4 C 11,5 C 0,0 km/h (0 Bft) 0,00 %
28.05.2015 08:45 12,1 C 62 % 1019,8 hPa 0,0 l/m 0,0 km/h (0 Bft) S-SW 205 0 min 0,000 mm 2,0 UV-I 266 W/m 5,0 C 12,1 C 0,0 km/h (0 Bft) 0,00 %
28.05.2015 09:00 13,4 C 58 % 1019,4 hPa 0,0 l/m 0,0 km/h (0 Bft) O-SO 114 15 min 0,000 mm 2,0 UV-I 454 W/m 5,3 C 13,4 C 0,0 km/h (0 Bft) 0,00 %
28.05.2015 09:15 13,7 C 61 % 1019,1 hPa 0,0 l/m 0,0 km/h (0 Bft) S 178 15 min 0,000 mm 2,0 UV-I 376 W/m 6,3 C 13,7 C 0,0 km/h (0 Bft) 0,00 %
28.05.2015 09:30 14,7 C 55 % 1018,8 hPa 0,0 l/m 0,0 km/h (0 Bft) SO 144 15 min 0,000 mm 3,0 UV-I 518 W/m 5,8 C 14,7 C 0,0 km/h (0 Bft) 0,00 %
28.05.2015 09:45 13,9 C 56 % 1019,1 hPa 0,0 l/m 0,0 km/h (0 Bft) N-NO 31 15 min 0,000 mm 3,0 UV-I 550 W/m 5,3 C 13,9 C 0,0 km/h (0 Bft) 0,00 %
28.05.2015 10:00 14,7 C 57 % 1018,7 hPa 0,0 l/m 0,0 km/h (0 Bft) O-NO 73 15 min 0,000 mm 4,0 UV-I 590 W/m 6,3 C 14,7 C 0,0 km/h (0 Bft) 0,00 %
28.05.2015 10:15 15,1 C 55 % 1018,8 hPa 0,0 l/m 0,7 km/h (0 Bft) O-NO 59 15 min 0,000 mm 4,0 UV-I 572 W/m 6,1 C 15,1 C 4,0 km/h (1 Bft) 0,00 %
28.05.2015 10:30 15,4 C 53 % 1018,5 hPa 0,0 l/m 0,0 km/h (0 Bft) S-SO 153 15 min 0,000 mm 4,0 UV-I 619 W/m 5,9 C 15,4 C 0,0 km/h (0 Bft) 0,00 %
28.05.2015 10:45 16,0 C 54 % 1018,5 hPa 0,0 l/m 0,0 km/h (0 Bft) O-SO 123 15 min 0,000 mm 4,0 UV-I 649 W/m 6,7 C 16,0 C 0,0 km/h (0 Bft) 0,00 %
28.05.2015 11:00 16,0 C 53 % 1017,9 hPa 0,0 l/m 0,0 km/h (0 Bft) S-SW 205 15 min 0,000 mm 5,0 UV-I 671 W/m 6,4 C 16,0 C 0,0 km/h (0 Bft) 0,00 %
28.05.2015 11:15 16,2 C 53 % 1018,1 hPa 0,0 l/m 1,4 km/h (1 Bft) SO 129 15 min 0,000 mm 5,0 UV-I 689 W/m 6,6 C 16,2 C 4,0 km/h (1 Bft) 0,00 %
28.05.2015 11:30 16,0 C 56 % 1018,1 hPa 0,0 l/m 0,7 km/h (0 Bft) W-SW 255 15 min 0,000 mm 5,0 UV-I 672 W/m 7,2 C 16,0 C 4,0 km/h (1 Bft) 0,00 %
28.05.2015 11:45 17,2 C 46 % 1017,9 hPa 0,0 l/m 0,0 km/h (0 Bft) O-SO 116 15 min 0,000 mm 4,0 UV-I 508 W/m 5,5 C 17,2 C 0,0 km/h (0 Bft) 0,00 %
28.05.2015 12:00 15,7 C 51 % 1018,1 hPa 0,0 l/m 0,0 km/h (0 Bft) S 179 0 min 0,000 mm 5,0 UV-I 438 W/m 5,6 C 15,7 C 0,0 km/h (0 Bft) 0,00 %
28.05.2015 12:15 17,2 C 48 % 1017,5 hPa 0,0 l/m 1,4 km/h (1 Bft) N-NO 16 15 min 0,000 mm 6,0 UV-I 726 W/m 6,1 C 17,2 C 4,0 km/h (1 Bft) 0,00 %
28.05.2015 12:30 17,6 C 48 % 1017,5 hPa 0,0 l/m 1,8 km/h (1 Bft) SW 232 15 min 0,000 mm 6,0 UV-I 777 W/m 6,5 C 17,6 C 4,0 km/h (1 Bft) 0,00 %
28.05.2015 12:45 18,5 C 48 % 1017,1 hPa 0,0 l/m 0,0 km/h (0 Bft) SO 144 15 min 0,000 mm 6,0 UV-I 828 W/m 7,3 C 18,5 C 0,0 km/h (0 Bft) 0,00 %
28.05.2015 13:00 18,2 C 47 % 1016,8 hPa 0,0 l/m 2,2 km/h (1 Bft) O-SO 111 15 min 0,000 mm 6,0 UV-I 866 W/m 6,7 C 18,2 C 4,0 km/h (1 Bft) 0,00 %
28.05.2015 13:15 19,1 C 46 % 1016,6 hPa 0,0 l/m 1,4 km/h (1 Bft) S 183 15 min 0,000 mm 3,0 UV-I 909 W/m 7,2 C 19,1 C 4,0 km/h (1 Bft) 0,00 %
28.05.2015 13:30 17,5 C 50 % 1016,8 hPa 0,0 l/m 5,4 km/h (1 Bft) SW 227 15 min 0,000 mm 3,0 UV-I 940 W/m 7,0 C 17,5 C 7,9 km/h (2 Bft) 0,00 %
28.05.2015 13:45 17,3 C 46 % 1016,6 hPa 0,0 l/m 0,0 km/h (0 Bft) O-SO 119 15 min 0,000 mm 5,0 UV-I 792 W/m 5,6 C 17,3 C 0,0 km/h (0 Bft) 0,00 %
28.05.2015 14:00 19,0 C 43 % 1016,2 hPa 0,0 l/m 0,0 km/h (0 Bft) W-NW 301 15 min 0,000 mm 5,0 UV-I 808 W/m 6,1 C 19,0 C 0,0 km/h (0 Bft) 0,00 %
28.05.2015 14:15 19,9 C 45 % 1015,8 hPa 0,0 l/m 0,0 km/h (0 Bft) S-SW 202 15 min 0,000 mm 5,0 UV-I 860 W/m 7,6 C 19,9 C 0,0 km/h (0 Bft) 0,00 %
28.05.2015 14:30 19,7 C 40 % 1015,8 hPa 0,0 l/m 2,9 km/h (1 Bft) W-SW 257 0 min 0,000 mm 5,0 UV-I 281 W/m 5,7 C 19,7 C 4,0 km/h (1 Bft) 0,00 %
28.05.2015 14:45 19,2 C 45 % 1015,5 hPa 0,0 l/m 0,0 km/h (0 Bft) S-SW 192 15 min 0,000 mm 5,0 UV-I 743 W/m 7,0 C 19,2 C 0,0 km/h (0 Bft) 0,00 %
28.05.2015 15:00 20,4 C 38 % 1015,3 hPa 0,0 l/m 0,0 km/h (0 Bft) S-SW 204 15 min 0,000 mm 5,0 UV-I 818 W/m 5,6 C 20,4 C 0,0 km/h (0 Bft) 0,00 %
28.05.2015 15:15 20,7 C 37 % 1015,2 hPa 0,0 l/m 0,7 km/h (0 Bft) SW 227 15 min 0,000 mm 4,0 UV-I 842 W/m 5,5 C 20,7 C 4,0 km/h (1 Bft) 0,00 %
28.05.2015 15:30 20,5 C 39 % 1015,0 hPa 0,0 l/m 0,7 km/h (0 Bft) W-SW 255 15 min 0,000 mm 4,0 UV-I 825 W/m 6,1 C 20,5 C 4,0 km/h (1 Bft) 0,00 %
28.05.2015 15:45 21,1 C 39 % 1014,8 hPa 0,0 l/m 0,4 km/h (0 Bft) SW 224 15 min 0,000 mm 4,0 UV-I 857 W/m 6,6 C 21,1 C 4,0 km/h (1 Bft) 0,00 %
28.05.2015 16:00 20,4 C 40 % 1014,9 hPa 0,0 l/m 7,2 km/h (2 Bft) W-SW 255 15 min 0,000 mm 2,0 UV-I 793 W/m 6,3 C 20,1 C 11,9 km/h (2 Bft) 0,00 %
28.05.2015 16:15 20,5 C 40 % 1014,6 hPa 0,0 l/m 0,0 km/h (0 Bft) SO 132 15 min 0,000 mm 2,0 UV-I 785 W/m 6,4 C 20,5 C 0,0 km/h (0 Bft) 0,00 %
28.05.2015 16:30 19,5 C 44 % 1014,6 hPa 0,0 l/m 0,7 km/h (0 Bft) O-SO 103 15 min 0,000 mm 2,0 UV-I 831 W/m 6,9 C 19,5 C 4,0 km/h (1 Bft) 0,00 %
28.05.2015 16:45 20,3 C 37 % 1014,3 hPa 0,0 l/m 0,7 km/h (0 Bft) SO 138 15 min 0,000 mm 2,0 UV-I 770 W/m 5,1 C 20,3 C 4,0 km/h (1 Bft) 0,00 %
28.05.2015 17:00 20,5 C 41 % 1014,1 hPa 0,0 l/m 0,0 km/h (0 Bft) S 185 15 min 0,000 mm 2,0 UV-I 793 W/m 6,8 C 20,5 C 0,0 km/h (0 Bft) 0,00 %
28.05.2015 17:15 21,4 C 33 % 1013,8 hPa 0,0 l/m 0,0 km/h (0 Bft) S 184 15 min 0,000 mm 2,0 UV-I 766 W/m 4,5 C 21,4 C 0,0 km/h (0 Bft) 0,00 %
28.05.2015 17:30 20,7 C 39 % 1013,8 hPa 0,0 l/m 0,0 km/h (0 Bft) NO 55 15 min 0,000 mm 1,0 UV-I 734 W/m 6,2 C 20,7 C 0,0 km/h (0 Bft) 0,00 %
28.05.2015 17:45 21,0 C 34 % 1013,7 hPa 0,0 l/m 0,0 km/h (0 Bft) S-SW 211 15 min 0,000 mm 1,0 UV-I 733 W/m 4,5 C 21,0 C 0,0 km/h (0 Bft) 0,00 %
28.05.2015 18:00 21,3 C 38 % 1013,2 hPa 0,0 l/m 2,9 km/h (1 Bft) NW 305 15 min 0,000 mm 1,0 UV-I 706 W/m 6,4 C 21,3 C 4,0 km/h (1 Bft) 0,00 %
28.05.2015 18:15 21,4 C 39 % 1013,2 hPa 0,0 l/m 0,4 km/h (0 Bft) N-NO 24 15 min 0,000 mm 1,0 UV-I 667 W/m 6,9 C 21,4 C 4,0 km/h (1 Bft) 0,00 %
28.05.2015 18:30 19,9 C 41 % 1013,2 hPa 0,0 l/m 0,0 km/h (0 Bft) S 185 15 min 0,000 mm 1,0 UV-I 619 W/m 6,3 C 19,9 C 0,0 km/h (0 Bft) 0,00 %
28.05.2015 18:45 20,5 C 37 % 1013,2 hPa 0,0 l/m 0,0 km/h (0 Bft) S 185 15 min 0,000 mm 1,0 UV-I 582 W/m 5,3 C 20,5 C 0,0 km/h (0 Bft) 0,00 %
28.05.2015 19:00 20,6 C 42 % 1013,1 hPa 0,0 l/m 0,0 km/h (0 Bft) NW 307 15 min 0,000 mm 1,0 UV-I 525 W/m 7,2 C 20,6 C 0,0 km/h (0 Bft) 0,00 %
28.05.2015 19:15 19,3 C 43 % 1013,5 hPa 0,0 l/m 0,0 km/h (0 Bft) S 174 15 min 0,000 mm 1,0 UV-I 323 W/m 6,4 C 19,3 C 0,0 km/h (0 Bft) 0,00 %
28.05.2015 19:30 18,5 C 45 % 1013,4 hPa 0,0 l/m 0,0 km/h (0 Bft) S 177 15 min 0,000 mm 1,0 UV-I 129 W/m 6,3 C 18,5 C 0,0 km/h (0 Bft) 0,00 %
28.05.2015 19:45 18,3 C 49 % 1013,4 hPa 0,0 l/m 0,0 km/h (0 Bft) S-SO 147 15 min 0,000 mm 0,0 UV-I 165 W/m 7,4 C 18,3 C 0,0 km/h (0 Bft) 0,00 %
28.05.2015 20:00 17,9 C 51 % 1013,4 hPa 0,0 l/m 0,0 km/h (0 Bft) S-SO 148 15 min 0,000 mm 0,0 UV-I 107 W/m 7,6 C 17,9 C 0,0 km/h (0 Bft) 0,00 %
28.05.2015 20:15 16,3 C 52 % 1013,7 hPa 0,0 l/m 0,0 km/h (0 Bft) SO 143 0 min 0,000 mm 0,0 UV-I 31 W/m 6,4 C 16,3 C 0,0 km/h (0 Bft) 0,00 %
28.05.2015 20:30 15,5 C 54 % 1013,7 hPa 0,0 l/m 0,0 km/h (0 Bft) O-SO 115 0 min 0,000 mm 0,0 UV-I 9 W/m 6,2 C 15,5 C 0,0 km/h (0 Bft) 0,00 %
28.05.2015 20:45 14,8 C 60 % 1013,6 hPa 0,0 l/m 0,0 km/h (0 Bft) S 175 0 min 0,000 mm 0,0 UV-I 1 W/m 7,1 C 14,8 C 0,0 km/h (0 Bft) 0,00 %
28.05.2015 21:00 14,0 C 64 % 1014,0 hPa 0,0 l/m 0,0 km/h (0 Bft) S 175 0 min 0,000 mm 0,0 UV-I 0 W/m 7,3 C 14,0 C 0,0 km/h (0 Bft) 0,00 %
28.05.2015 21:15 13,5 C 70 % 1014,1 hPa 0,0 l/m 0,0 km/h (0 Bft) S 175 0 min 0,000 mm 0,0 UV-I 0 W/m 8,1 C 13,5 C 0,0 km/h (0 Bft) 0,00 %
28.05.2015 21:30 12,6 C 75 % 1014,4 hPa 0,0 l/m 0,0 km/h (0 Bft) S 183 0 min 0,000 mm 0,0 UV-I 0 W/m 8,3 C 12,6 C 0,0 km/h (0 Bft) 0,00 %
28.05.2015 21:45 12,1 C 77 % 1014,3 hPa 0,0 l/m 0,0 km/h (0 Bft) S 191 0 min 0,000 mm 0,0 UV-I 0 W/m 8,2 C 12,1 C 0,0 km/h (0 Bft) 0,00 %
28.05.2015 22:00 11,9 C 75 % 1014,4 hPa 0,0 l/m 0,0 km/h (0 Bft) S 185 0 min 0,000 mm 0,0 UV-I 0 W/m 7,6 C 11,9 C 0,0 km/h (0 Bft) 0,00 %
28.05.2015 22:15 11,8 C 75 % 1014,4 hPa 0,0 l/m 0,0 km/h (0 Bft) S 186 0 min 0,000 mm 0,0 UV-I 0 W/m 7,5 C 11,8 C 0,0 km/h (0 Bft) 0,00 %
28.05.2015 22:30 11,7 C 76 % 1014,5 hPa 0,0 l/m 0,0 km/h (0 Bft) S 181 0 min 0,000 mm 0,0 UV-I 0 W/m 7,6 C 11,7 C 0,0 km/h (0 Bft) 0,00 %
28.05.2015 22:45 11,7 C 78 % 1014,6 hPa 0,0 l/m 0,0 km/h (0 Bft) S 181 0 min 0,000 mm 0,0 UV-I 0 W/m 8,0 C 11,7 C 0,0 km/h (0 Bft) 0,00 %
28.05.2015 23:00 11,4 C 80 % 1014,8 hPa 0,0 l/m 0,0 km/h (0 Bft) S 181 0 min 0,000 mm 0,0 UV-I 0 W/m 8,1 C 11,4 C 0,0 km/h (0 Bft) 0,00 %
28.05.2015 23:15 11,0 C 82 % 1015,0 hPa 0,0 l/m 0,0 km/h (0 Bft) S 181 0 min 0,000 mm 0,0 UV-I 0 W/m 8,0 C 11,0 C 0,0 km/h (0 Bft) 0,00 %
28.05.2015 23:30 10,9 C 82 % 1015,0 hPa 0,0 l/m 0,0 km/h (0 Bft) S 177 0 min 0,000 mm 0,0 UV-I 0 W/m 7,9 C 10,9 C 0,0 km/h (0 Bft) 0,00 %
28.05.2015 23:45 11,1 C 80 % 1014,9 hPa 0,0 l/m 0,0 km/h (0 Bft) S 180 0 min 0,000 mm 0,0 UV-I 0 W/m 7,8 C 11,1 C 0,0 km/h (0 Bft) 0,00 %
_ Min-Zeit 05:30 17:15 19:00 - 00:00 - - - - - - 17:15 05:30 00:00 00:00
Minimum _ 7,2 C 33 % 1013,1 hPa - 0,0 km/h (0 Bft) - - - - - - 4,5 C 7,2 C 0,0 km/h (0 Bft) 0,00 %
_ Max-Zeit 17:15 05:30 00:00 00:00 16:00 - - 09:00 00:00 12:15 13:30 21:30 17:15 16:00 00:00
Maximum _ 21,4 C 89 % 1021,3 hPa 0,0 l/m 7,2 km/h
W-SW (2 Bft)
- - 15 min 0,000 mm 6,0 UV-I 940 W/m 8,3 C 21,4 C 11,9 km/h
W-SW (2 Bft)
0,00 %
Durchschnitt _ 13,9 C 62 % 1017,4 hPa #0,0 l/m 0,3 km/h (0 Bft) SW - #10:45 h #0,000 mm 2,9 UV-I 496 W/m 6,2 C 13,9 C 0,8 km/h (0 Bft) 0,00 %